TAP1923 LPPR-LPPT

Flight info

Callsign TAP1923
Flight time 0h 37m
Altitude 23000
Route MANIK DCT ABRIL DCT XAMAX
Aircraft A319/M-SDE3FGHIRWY/LB1

Departure

Time 2026-05-06 20:25
Airport Francisco de Sá Carneiro Airport (LPPR)

Arrival

Time 2026-05-06 21:03
Airport Lisbon Humberto Delgado Airport (LPPT)
Time Latitude Longitude Altitude Speed Heading
2026-05-06 20:05 41.23594 -8.67217 245 ft 0 kts 89°
2026-05-06 20:16 41.23593 -8.67230 245 ft 4 kts 90°
2026-05-06 20:16 41.23594 -8.67265 245 ft 4 kts 94°
2026-05-06 20:17 41.23598 -8.67301 243 ft 4 kts 110°
2026-05-06 20:17 41.23609 -8.67324 242 ft 4 kts 175°
2026-05-06 20:17 41.23615 -8.67325 242 ft 0 kts 195°
2026-05-06 20:21 41.23613 -8.67326 242 ft 0 kts 195°
2026-05-06 20:21 41.23608 -8.67328 242 ft 3 kts 196°
2026-05-06 20:22 41.23539 -8.67372 241 ft 16 kts 205°
2026-05-06 20:22 41.23525 -8.67380 241 ft 0 kts 199°
2026-05-06 20:22 41.23524 -8.67380 241 ft 1 kts 198°
2026-05-06 20:22 41.23506 -8.67383 240 ft 4 kts 184°
2026-05-06 20:23 41.23471 -8.67378 240 ft 7 kts 171°
2026-05-06 20:23 41.23407 -8.67365 240 ft 12 kts 172°
2026-05-06 20:23 41.23336 -8.67425 240 ft 15 kts 246°
2026-05-06 20:23 41.23316 -8.67537 236 ft 12 kts 260°
2026-05-06 20:24 41.23301 -8.67647 236 ft 12 kts 259°
2026-05-06 20:24 41.23330 -8.67734 238 ft 11 kts 332°
2026-05-06 20:24 41.23449 -8.67769 236 ft 37 kts 349°
2026-05-06 20:24 41.23990 -8.67914 220 ft 118 kts 348°
2026-05-06 20:25 41.24969 -8.68172 506 ft 150 kts 348°
2026-05-06 20:25 41.25980 -8.68454 1325 ft 148 kts 348°
2026-05-06 20:25 41.27032 -8.68735 1918 ft 164 kts 349°
2026-05-06 20:25 41.28219 -8.69043 2408 ft 186 kts 349°
2026-05-06 20:26 41.29592 -8.69396 2883 ft 212 kts 349°
2026-05-06 20:26 41.31128 -8.69796 3486 ft 237 kts 349°
2026-05-06 20:26 41.32815 -8.70238 4213 ft 255 kts 349°
2026-05-06 20:26 41.34588 -8.70704 5187 ft 264 kts 349°
2026-05-06 20:27 41.36415 -8.71180 6203 ft 271 kts 349°
2026-05-06 20:27 41.38288 -8.71679 7179 ft 277 kts 346°
2026-05-06 20:27 41.40050 -8.72774 8078 ft 285 kts 320°
2026-05-06 20:27 41.41267 -8.74810 8975 ft 289 kts 292°
2026-05-06 20:28 41.41676 -8.77405 9957 ft 287 kts 266°
2026-05-06 20:28 41.41261 -8.80063 10497 ft 303 kts 243°
2026-05-06 20:28 41.40035 -8.82438 10876 ft 323 kts 222°
2026-05-06 20:28 41.38082 -8.84049 11293 ft 341 kts 199°
2026-05-06 20:29 41.35722 -8.84456 12014 ft 348 kts 175°
2026-05-06 20:29 41.34126 -8.84124 12546 ft 353 kts 169°
2026-05-06 20:29 41.31682 -8.83493 13276 ft 361 kts 169°
2026-05-06 20:29 41.29204 -8.82826 14012 ft 367 kts 168°
2026-05-06 20:30 41.26681 -8.82138 14705 ft 372 kts 169°
2026-05-06 20:30 41.21521 -8.81514 16191 ft 377 kts 191°
2026-05-06 20:30 41.18944 -8.82232 17001 ft 379 kts 193°
2026-05-06 20:31 41.16356 -8.82990 17743 ft 383 kts 193°
2026-05-06 20:31 41.13742 -8.83763 18428 ft 387 kts 194°
2026-05-06 20:31 41.11106 -8.84541 19122 ft 388 kts 193°
2026-05-06 20:31 41.08466 -8.85318 19806 ft 391 kts 193°
2026-05-06 20:32 41.04894 -8.86362 20628 ft 395 kts 193°
2026-05-06 20:32 41.03111 -8.86880 21058 ft 396 kts 193°
2026-05-06 20:32 41.00414 -8.87664 21722 ft 397 kts 193°
2026-05-06 20:32 40.97710 -8.88451 22293 ft 400 kts 193°
2026-05-06 20:33 40.94971 -8.89246 22790 ft 405 kts 193°
2026-05-06 20:33 40.92214 -8.90049 22939 ft 409 kts 193°
2026-05-06 20:33 40.89390 -8.90876 22957 ft 423 kts 193°
2026-05-06 20:33 40.86498 -8.91720 22953 ft 429 kts 193°
2026-05-06 20:34 40.83577 -8.92566 22958 ft 430 kts 193°
2026-05-06 20:34 40.80659 -8.93407 22955 ft 428 kts 193°
2026-05-06 20:34 40.77743 -8.94247 22973 ft 429 kts 193°
2026-05-06 20:34 40.74822 -8.95096 22972 ft 430 kts 193°
2026-05-06 20:35 40.71901 -8.95942 22965 ft 428 kts 193°
2026-05-06 20:35 40.68991 -8.96783 22968 ft 428 kts 193°
2026-05-06 20:35 40.66069 -8.97625 22970 ft 430 kts 193°
2026-05-06 20:35 40.63158 -8.98462 22971 ft 430 kts 193°
2026-05-06 20:36 40.60232 -8.99304 22973 ft 430 kts 193°
2026-05-06 20:36 40.57308 -9.00144 22967 ft 430 kts 193°
2026-05-06 20:36 40.54442 -9.00966 22964 ft 430 kts 193°
2026-05-06 20:36 40.51508 -9.01807 22963 ft 430 kts 193°
2026-05-06 20:37 40.48552 -9.02656 22961 ft 430 kts 193°
2026-05-06 20:37 40.45624 -9.03496 22957 ft 430 kts 193°
2026-05-06 20:37 40.42709 -9.04330 22958 ft 430 kts 193°
2026-05-06 20:37 40.39824 -9.05156 22957 ft 430 kts 193°
2026-05-06 20:38 40.36859 -9.06007 22951 ft 430 kts 193°
2026-05-06 20:38 40.33977 -9.06833 22952 ft 430 kts 193°
2026-05-06 20:38 40.31056 -9.07666 22953 ft 430 kts 193°
2026-05-06 20:38 40.28136 -9.08497 22953 ft 430 kts 193°
2026-05-06 20:39 40.25208 -9.09332 22974 ft 429 kts 193°
2026-05-06 20:39 40.22288 -9.10163 22976 ft 429 kts 193°
2026-05-06 20:39 40.19376 -9.10989 22976 ft 429 kts 193°
2026-05-06 20:39 40.16456 -9.11817 22975 ft 428 kts 193°
2026-05-06 20:40 40.13549 -9.12640 22979 ft 428 kts 193°
2026-05-06 20:40 40.10642 -9.13463 22974 ft 428 kts 193°
2026-05-06 20:40 40.07729 -9.14287 22969 ft 428 kts 193°
2026-05-06 20:40 40.04822 -9.15110 22972 ft 427 kts 193°
2026-05-06 20:41 40.01912 -9.15937 22966 ft 427 kts 193°
2026-05-06 20:41 39.99006 -9.16760 22962 ft 428 kts 193°
2026-05-06 20:41 39.96098 -9.17583 22976 ft 427 kts 193°
2026-05-06 20:41 39.93188 -9.18407 22973 ft 427 kts 193°
2026-05-06 20:42 39.90288 -9.19227 22968 ft 428 kts 193°
2026-05-06 20:42 39.87376 -9.20045 22953 ft 428 kts 193°
2026-05-06 20:42 39.84468 -9.20861 22956 ft 427 kts 193°
2026-05-06 20:42 39.81563 -9.21676 22958 ft 427 kts 193°
2026-05-06 20:43 39.78688 -9.22481 22964 ft 428 kts 193°
2026-05-06 20:43 39.75779 -9.23297 22971 ft 428 kts 193°
2026-05-06 20:43 39.72872 -9.24111 22970 ft 428 kts 193°
2026-05-06 20:43 39.69963 -9.24924 22964 ft 428 kts 193°
2026-05-06 20:44 39.67055 -9.25736 22966 ft 428 kts 193°
2026-05-06 20:44 39.64143 -9.26548 22964 ft 428 kts 193°
2026-05-06 20:44 39.61231 -9.27359 22963 ft 428 kts 193°
2026-05-06 20:44 39.58321 -9.28170 22965 ft 428 kts 193°
2026-05-06 20:45 39.55406 -9.28988 22967 ft 428 kts 193°
2026-05-06 20:45 39.52496 -9.29804 22969 ft 428 kts 193°
2026-05-06 20:45 39.49582 -9.30619 22967 ft 428 kts 193°
2026-05-06 20:45 39.46669 -9.31430 22971 ft 428 kts 193°
2026-05-06 20:46 39.43756 -9.32238 22969 ft 429 kts 193°
2026-05-06 20:46 39.40844 -9.33048 22964 ft 429 kts 193°
2026-05-06 20:46 39.37921 -9.33864 22965 ft 429 kts 193°
2026-05-06 20:46 39.35000 -9.34675 22966 ft 429 kts 193°
2026-05-06 20:47 39.32081 -9.35480 22967 ft 429 kts 193°
2026-05-06 20:47 39.29158 -9.36285 22966 ft 428 kts 193°
2026-05-06 20:47 39.26311 -9.37069 22872 ft 410 kts 193°
2026-05-06 20:47 39.23585 -9.37822 21602 ft 405 kts 193°
2026-05-06 20:48 39.20804 -9.38592 19885 ft 412 kts 193°
2026-05-06 20:48 39.18027 -9.39361 19027 ft 400 kts 193°
2026-05-06 20:48 39.15361 -9.40097 18358 ft 389 kts 193°
2026-05-06 20:48 39.12720 -9.40829 17484 ft 386 kts 193°
2026-05-06 20:49 39.10109 -9.41546 16722 ft 382 kts 193°
2026-05-06 20:49 39.07501 -9.42260 15969 ft 384 kts 194°
2026-05-06 20:49 39.04887 -9.42977 15241 ft 384 kts 193°
2026-05-06 20:49 39.02275 -9.43695 14520 ft 384 kts 193°
2026-05-06 20:50 38.99669 -9.44409 13824 ft 383 kts 194°
2026-05-06 20:50 38.97067 -9.45124 13079 ft 381 kts 194°
2026-05-06 20:50 38.94492 -9.45833 12394 ft 376 kts 193°
2026-05-06 20:50 38.91948 -9.46533 11720 ft 371 kts 193°
2026-05-06 20:51 38.89436 -9.47222 11136 ft 365 kts 193°
2026-05-06 20:51 38.87021 -9.47883 11014 ft 346 kts 193°
2026-05-06 20:51 38.84725 -9.48506 10884 ft 329 kts 192°
2026-05-06 20:51 38.82533 -9.49100 10755 ft 315 kts 192°
2026-05-06 20:52 38.80439 -9.49670 10633 ft 302 kts 193°
2026-05-06 20:52 38.78447 -9.50214 10410 ft 294 kts 192°
2026-05-06 20:52 38.76459 -9.50756 10163 ft 290 kts 193°
2026-05-06 20:52 38.74492 -9.51293 9924 ft 288 kts 192°
2026-05-06 20:53 38.72530 -9.51829 9784 ft 288 kts 193°
2026-05-06 20:53 38.70567 -9.52368 9650 ft 288 kts 192°
2026-05-06 20:53 38.68614 -9.52906 9522 ft 287 kts 193°
2026-05-06 20:53 38.66656 -9.53430 9140 ft 290 kts 190°
2026-05-06 20:54 38.64638 -9.53358 8622 ft 289 kts 167°
2026-05-06 20:54 38.62834 -9.52332 8005 ft 284 kts 143°
2026-05-06 20:54 38.61517 -9.50486 7338 ft 282 kts 120°
2026-05-06 20:54 38.60877 -9.48150 6716 ft 279 kts 98°
2026-05-06 20:55 38.60713 -9.45698 6208 ft 276 kts 95°
2026-05-06 20:55 38.60555 -9.43253 5716 ft 276 kts 95°
2026-05-06 20:55 38.60394 -9.40817 5247 ft 274 kts 94°
2026-05-06 20:55 38.60232 -9.38379 4766 ft 274 kts 93°
2026-05-06 20:56 38.60071 -9.35967 4473 ft 267 kts 93°
2026-05-06 20:56 38.59915 -9.33683 4402 ft 250 kts 92°
2026-05-06 20:56 38.59766 -9.31530 4344 ft 236 kts 91°
2026-05-06 20:56 38.59625 -9.29499 4293 ft 222 kts 92°
2026-05-06 20:57 38.59494 -9.27579 4215 ft 214 kts 91°
2026-05-06 20:57 38.59601 -9.25718 4008 ft 206 kts 69°
2026-05-06 20:57 38.60185 -9.24082 3851 ft 199 kts 51°
2026-05-06 20:57 38.61119 -9.22838 3638 ft 191 kts 31°
2026-05-06 20:58 38.62265 -9.22058 3420 ft 185 kts 17°
2026-05-06 20:58 38.63448 -9.21432 3215 ft 181 kts 19°
2026-05-06 20:58 38.64568 -9.20833 2940 ft 167 kts 19°
2026-05-06 20:58 38.65589 -9.20287 2741 ft 149 kts 18°
2026-05-06 20:59 38.66478 -9.19811 2542 ft 130 kts 17°
2026-05-06 20:59 38.67287 -9.19380 2372 ft 123 kts 17°
2026-05-06 20:59 38.68068 -9.18965 2200 ft 121 kts 17°
2026-05-06 20:59 38.68838 -9.18555 2045 ft 119 kts 17°
2026-05-06 21:00 38.69590 -9.18154 1887 ft 118 kts 16°
2026-05-06 21:00 38.70346 -9.17751 1733 ft 118 kts 16°
2026-05-06 21:00 38.71099 -9.17350 1558 ft 117 kts 16°
2026-05-06 21:00 38.71852 -9.16949 1404 ft 118 kts 17°
2026-05-06 21:01 38.72611 -9.16548 1239 ft 118 kts 18°
2026-05-06 21:01 38.73372 -9.16144 1087 ft 117 kts 17°
2026-05-06 21:01 38.74136 -9.15741 907 ft 120 kts 17°
2026-05-06 21:01 38.74893 -9.15313 701 ft 116 kts 17°
2026-05-06 21:02 38.75662 -9.14912 573 ft 118 kts 18°
2026-05-06 21:02 38.76420 -9.14508 419 ft 117 kts 17°
2026-05-06 21:02 38.77142 -9.14121 364 ft 97 kts 20°
2026-05-06 21:02 38.77639 -9.13860 367 ft 58 kts 23°
2026-05-06 21:03 38.77965 -9.13684 366 ft 42 kts 22°
2026-05-06 21:03 38.78195 -9.13550 367 ft 34 kts 33°
2026-05-06 21:03 38.78359 -9.13371 363 ft 20 kts 51°
2026-05-06 21:03 38.78297 -9.13273 359 ft 21 kts 197°
2026-05-06 21:04 38.78159 -9.13350 362 ft 22 kts 202°
2026-05-06 21:04 38.78076 -9.13392 358 ft 0 kts 201°
2026-05-06 21:04 38.78072 -9.13394 362 ft 2 kts 201°
2026-05-06 21:05 38.78032 -9.13414 360 ft 12 kts 201°
2026-05-06 21:05 38.77911 -9.13477 357 ft 25 kts 202°
2026-05-06 21:05 38.77833 -9.13518 360 ft 22 kts 202°
2026-05-06 21:05 38.77666 -9.13594 355 ft 19 kts 180°
2026-05-06 21:06 38.77522 -9.13560 357 ft 25 kts 168°
2026-05-06 21:06 38.77248 -9.13484 346 ft 52 kts 167°
2026-05-06 21:06 38.76898 -9.13394 344 ft 34 kts 168°
2026-05-06 21:06 38.76697 -9.13419 346 ft 29 kts 210°
2026-05-06 21:07 38.76544 -9.13453 354 ft 20 kts 162°
2026-05-06 21:07 38.76495 -9.13433 345 ft 0 kts 164°
2026-05-06 21:07 38.76508 -9.13436 345 ft 4 kts 207°
2026-05-06 21:07 38.76523 -9.13413 345 ft 1 kts 256°
2026-05-06 21:08 38.76524 -9.13407 345 ft 2 kts 259°
2026-05-06 21:08 38.76528 -9.13388 346 ft 0 kts 253°